Location: Deurze
(52.9838°N, 6.6090°E)
Time: 18:32:03
(UTC+00:00)

Cosmos 2227 Rocket - Pass Details

Date: 11 March 2026
Orbit: 836 x 845 km, 71.0° (Epoch: 20 April)

Event Time Altitude Azimuth Distance (km) Brightness Sun altitude
Rises 19:17:32 0° 320° (NW) 3,413 6.3 -16.7°
Reaches altitude 10° 19:21:10 10° 343° (NNW) 2,478 5.1 -17.3°
Maximum altitude 19:24:22 15° 18° (NNE) 2,138 4.3 -17.7°
Enters shadow 19:27:31 10° 52° (NE) 2,468 4.3 -18.2°
